Southend-On-Sea, United Kingdom

10:40 PM BST on July 25, 2017 (GMT +0100)
Southend

Weather History for EGMC - December, 2012

Change the Weather History Date:

Monday, December 31, 2012

  Actual Average Record
Temperature  
Mean Temperature 50 °F -  
Max Temperature 53 °F 44 °F 57 °F (2006)
Min Temperature 48 °F 35 °F 21 °F (2000)
Degree Days  
Heating Degree Days 14    
Moisture  
Dew Point 46 °F    
Average Humidity 83    
Maximum Humidity 88    
Minimum Humidity 76    
Precipitation  
Precipitation 0.00 in - - ()
Sea Level Pressure  
Sea Level Pressure 29.59 in    
Wind  
Wind Speed 20 mph ()    
Max Wind Speed 28 mph    
Max Gust Speed 39 mph    
Visibility 6.0 miles    
Events Rain    
Averages and records for this station are not official NWS values.
T = Trace of Precipitation, MM = Missing Value Source: Averaged Metar Reports

Daily Weather History Graph

Daily Weather History Graph

Search for Another Location

Airport or City:

Trip Planner

Search our weather history database for the weather conditions in past years. The results will help you decide how hot, cold, wet, or windy it might be!

Date:

Astronomy

Dec. 31, 2012 Rise Set
Actual Time 8:03 AM GMT 3:57 PM GMT
Civil Twilight 7:23 AM GMT 4:37 PM GMT
Nautical Twilight 6:40 AM GMT 5:20 PM GMT
Astronomical Twilight 5:59 AM GMT 6:01 PM GMT
Moon 7:38 PM GMT (12/31) 9:14 AM GMT (12/31)
Length of Visible Light 9h 14m
Length of Day
7h 54m
Waning Gibbous, 91% of the Moon is Illuminated
Dec 31
Waning Gibbous
Jan 5
Last Quarter
Jan 11
New
Jan 18
First Quarter
Jan 27
Full

Hourly Weather History & Observations

Time (GMT) Temp. Dew Point Humidity Pressure Visibility Wind Dir Wind Speed Gust Speed Precip Events Conditions
12:50 AM 51.8 °F 44.6 °F 76% 29.83 in 6.2 mi SW 21.9 mph - N/A   Mostly Cloudy
1:50 AM 51.8 °F 44.6 °F 76% 29.83 in 6.2 mi SW 25.3 mph - N/A   Mostly Cloudy
3:20 AM 51.8 °F 44.6 °F 76% 29.80 in 6.2 mi SSW 21.9 mph - N/A   Mostly Cloudy
3:50 AM 51.8 °F 44.6 °F 76% 29.80 in 6.2 mi SSW 20.7 mph - N/A   Mostly Cloudy
4:50 AM 51.8 °F 44.6 °F 76% 29.80 in 6.2 mi SW 23.0 mph - N/A   Mostly Cloudy
5:20 AM 51.8 °F 44.6 °F 76% 29.77 in 6.2 mi SSW 21.9 mph - N/A   Mostly Cloudy
5:50 AM 51.8 °F 44.6 °F 76% 29.74 in 6.2 mi SSW 21.9 mph - N/A   Mostly Cloudy
6:20 AM 51.8 °F 44.6 °F 76% 29.74 in 6.2 mi SSW 24.2 mph - N/A   Mostly Cloudy
6:50 AM 51.8 °F 44.6 °F 76% 29.71 in 6.2 mi SSW 21.9 mph - N/A   Mostly Cloudy
7:20 AM 51.8 °F 44.6 °F 76% 29.71 in 6.2 mi SSW 21.9 mph - N/A   Mostly Cloudy
8:20 AM 50.0 °F 46.4 °F 87% 29.71 in 6.2 mi SSW 21.9 mph - N/A   Mostly Cloudy
8:50 AM 50.0 °F 46.4 °F 87% 29.68 in 4.3 mi SSW 20.7 mph - N/A   Light Drizzle
9:20 AM 50.0 °F 46.4 °F 87% 29.68 in 6.2 mi SSW 21.9 mph 33.4 mph N/A   Mostly Cloudy
9:50 AM 51.8 °F 46.4 °F 82% 29.68 in 6.2 mi SSW 21.9 mph 33.4 mph N/A   Mostly Cloudy
10:20 AM 51.8 °F 46.4 °F 82% 29.65 in 6.2 mi SSW 25.3 mph 36.8 mph N/A   Mostly Cloudy
10:50 AM 51.8 °F 46.4 °F 82% 29.62 in 6.2 mi SSW 27.6 mph - N/A   Mostly Cloudy
11:20 AM 51.8 °F 46.4 °F 82% 29.62 in 6.2 mi SSW 27.6 mph - N/A   Scattered Clouds
11:50 AM 53.6 °F 46.4 °F 77% 29.59 in 6.2 mi SSW 27.6 mph 39.1 mph N/A Rain Light Rain
12:20 PM 51.8 °F 46.4 °F 82% 29.59 in 6.2 mi SSW 24.2 mph 35.7 mph N/A   Mostly Cloudy
12:50 PM 51.8 °F 46.4 °F 82% 29.56 in 6.2 mi SSW 24.2 mph - N/A Rain Light Rain
1:20 PM 50.0 °F 46.4 °F 87% 29.53 in 6.2 mi SSW 23.0 mph - N/A Rain Light Rain
1:50 PM 50.0 °F 46.4 °F 87% 29.53 in 6.2 mi SSW 23.0 mph - N/A Rain Light Rain
2:20 PM 50.0 °F 46.4 °F 87% 29.53 in 5.6 mi SSW 23.0 mph - N/A Rain Light Rain
2:50 PM 51.8 °F 48.2 °F 88% 29.50 in 5.6 mi SSW 23.0 mph 34.5 mph N/A Rain Light Rain
3:20 PM 51.8 °F 48.2 °F 88% 29.50 in 5.6 mi SSW 21.9 mph - N/A Rain Light Rain
3:50 PM 50.0 °F 46.4 °F 87% 29.47 in 5.6 mi SSW 21.9 mph - N/A Rain Light Rain
4:20 PM 50.0 °F 46.4 °F 87% 29.44 in 5.6 mi SSW 21.9 mph - N/A Rain Light Rain
4:50 PM 51.8 °F 48.2 °F 88% 29.44 in 5.6 mi SSW 23.0 mph - N/A Rain Light Rain
5:20 PM 51.8 °F 46.4 °F 82% 29.44 in 5.6 mi SW 23.0 mph - N/A Rain Light Rain
5:50 PM 51.8 °F 46.4 °F 82% 29.47 in 5.6 mi SW 20.7 mph - N/A Rain Light Rain
6:20 PM 51.8 °F 46.4 °F 82% 29.47 in 6.2 mi SW 17.3 mph 28.8 mph N/A   Scattered Clouds
6:50 PM 50.0 °F 46.4 °F 87% 29.47 in 6.2 mi SW 16.1 mph - N/A Rain Light Rain
7:20 PM 50.0 °F 46.4 °F 87% 29.47 in 6.2 mi SW 11.5 mph - N/A Rain Light Rain
7:50 PM 50.0 °F 46.4 °F 87% 29.47 in 6.2 mi SW 16.1 mph - N/A   Mostly Cloudy
8:20 PM 50.0 °F 46.4 °F 87% 29.47 in 6.2 mi SW 12.7 mph - N/A   Scattered Clouds
8:50 PM 50.0 °F 46.4 °F 87% 29.47 in 6.2 mi SW 12.7 mph - N/A   Partly Cloudy
9:20 PM 50.0 °F 46.4 °F 87% 29.47 in 6.2 mi SW 11.5 mph - N/A   Scattered Clouds
9:50 PM 48.2 °F 44.6 °F 87% 29.47 in - SW 10.4 mph - N/A   Clear
10:20 PM 50.0 °F 46.4 °F 87% 29.47 in 6.2 mi SW 10.4 mph - N/A   Partly Cloudy
10:50 PM 48.2 °F 44.6 °F 87% 29.50 in 6.2 mi SW 8.1 mph - N/A   Partly Cloudy